User: anonymous   Login
Location: Mentone
(34.5413°N, 85.5351°W)
Time: 15:47:59
(UTC-05:00)
Language:

ERBS - Orbit

View from above orbital plane
View from above orbital plane
View from above satellite
View from above satellite

Ground track
Ground track

The orbit data is extracted from the following two-line orbital elements,

1 15354U 84108B   16183.49659966  .00001908  00000-0  54834-4 0  9998
2 15354  57.0077 205.3297 0014525 137.2372 222.9814 15.41005001744095
Epoch (UTC): 01 July 2016 11:55:06
Eccentricity: 0.0014525
inclination: 57.0077°
perigee height: 433 km
apogee height: 453 km
right ascension of ascending node: 205.3297°
argument of perigee: 137.2372°
revolutions per day: 15.41005001
mean anomaly at epoch: 222.9814°
orbit number at epoch: 74409

The dashed part of the orbit path shows where the satellite is in the earth's shadow,  

DLR